TimeEST,TemperatureF,Dew PointF,Humidity,Sea Level PressureIn,VisibilityMPH,Wind Direction,Wind SpeedMPH,Gust SpeedMPH,PrecipitationIn,Events,Conditions,WindDirDegrees,DateUTC
12:15 AM,45.9,36.5,70,30.30,10.0,North,3.5,-,N/A,,Overcast,10,2012-11-18 05:15:00
12:35 AM,46.0,37.2,71,30.29,10.0,North,3.5,-,N/A,,Overcast,360,2012-11-18 05:35:00
12:55 AM,45.9,37.8,73,30.29,10.0,North,3.5,-,N/A,,Overcast,360,2012-11-18 05:55:00
1:15 AM,45.7,38.5,76,30.28,10.0,NNW,3.5,-,N/A,,Overcast,340,2012-11-18 06:15:00
1:35 AM,46.0,38.7,75,30.28,10.0,Calm,Calm,-,N/A,,Overcast,0,2012-11-18 06:35:00
1:55 AM,46.2,39.0,76,30.28,10.0,Calm,Calm,-,N/A,,Overcast,0,2012-11-18 06:55:00
2:15 AM,46.0,38.8,76,30.28,10.0,North,3.5,-,N/A,,Overcast,360,2012-11-18 07:15:00
2:35 AM,45.7,39.4,79,30.28,10.0,North,3.5,-,N/A,,Overcast,350,2012-11-18 07:35:00
2:55 AM,45.0,39.4,81,30.27,10.0,North,3.5,-,N/A,,Mostly Cloudy,360,2012-11-18 07:55:00
3:15 AM,44.8,39.6,82,30.28,10.0,North,3.5,-,N/A,,Overcast,10,2012-11-18 08:15:00
3:35 AM,45.5,40.3,82,30.28,10.0,North,4.6,-,N/A,,Overcast,360,2012-11-18 08:35:00
3:55 AM,45.7,40.6,83,30.28,10.0,North,3.5,-,N/A,,Overcast,360,2012-11-18 08:55:00
4:15 AM,46.2,41.2,83,30.28,10.0,NNW,3.5,-,N/A,,Overcast,340,2012-11-18 09:15:00
4:35 AM,46.4,41.4,83,30.28,10.0,North,3.5,-,N/A,,Overcast,360,2012-11-18 09:35:00
4:55 AM,46.2,41.2,83,30.28,10.0,North,4.6,-,N/A,,Overcast,350,2012-11-18 09:55:00
5:15 AM,45.3,41.2,85,30.29,10.0,North,3.5,-,N/A,,Mostly Cloudy,350,2012-11-18 10:15:00
5:35 AM,44.4,41.2,88,30.29,10.0,North,4.6,-,N/A,,Mostly Cloudy,360,2012-11-18 10:35:00
5:55 AM,44.1,41.2,90,30.30,10.0,Calm,Calm,-,N/A,,Overcast,0,2012-11-18 10:55:00
6:15 AM,44.8,41.7,89,30.29,10.0,NNE,3.5,-,N/A,,Overcast,20,2012-11-18 11:15:00
6:35 AM,45.0,41.9,89,30.29,10.0,North,4.6,-,N/A,,Scattered Clouds,10,2012-11-18 11:35:00
6:55 AM,44.4,41.5,90,30.29,10.0,North,4.6,-,N/A,,Scattered Clouds,10,2012-11-18 11:55:00
7:15 AM,44.6,41.7,90,30.30,10.0,NNE,3.5,-,N/A,,Mostly Cloudy,20,2012-11-18 12:15:00
7:35 AM,44.8,41.9,90,30.30,10.0,North,3.5,-,N/A,,Scattered Clouds,10,2012-11-18 12:35:00
7:55 AM,45.3,41.5,87,30.30,10.0,North,4.6,-,N/A,,Clear,360,2012-11-18 12:55:00
8:15 AM,46.6,41.9,84,30.31,10.0,North,4.6,-,N/A,,Clear,360,2012-11-18 13:15:00
8:35 AM,48.7,42.1,78,30.31,10.0,North,6.9,-,N/A,,Clear,360,2012-11-18 13:35:00
8:55 AM,50.2,42.3,74,30.32,10.0,North,5.8,-,N/A,,Mostly Cloudy,10,2012-11-18 13:55:00
9:15 AM,51.6,42.6,71,30.32,10.0,North,8.1,-,N/A,,Overcast,10,2012-11-18 14:15:00
9:35 AM,52.7,43.5,71,30.32,10.0,NNE,6.9,-,N/A,,Overcast,30,2012-11-18 14:35:00
9:55 AM,53.6,44.1,70,30.32,10.0,NNE,9.2,-,N/A,,Overcast,20,2012-11-18 14:55:00
10:15 AM,54.7,44.8,69,30.31,10.0,NNE,8.1,16.1,N/A,,Overcast,30,2012-11-18 15:15:00
10:35 AM,56.5,45.9,68,30.31,10.0,NE,10.4,-,N/A,,Mostly Cloudy,40,2012-11-18 15:35:00
10:55 AM,57.0,46.6,68,30.31,10.0,NNE,8.1,-,N/A,,Scattered Clouds,30,2012-11-18 15:55:00
11:15 AM,58.3,47.8,68,30.30,10.0,ENE,6.9,17.3,N/A,,Clear,70,2012-11-18 16:15:00
11:35 AM,59.7,48.0,65,30.29,10.0,NNE,9.2,-,N/A,,Clear,20,2012-11-18 16:35:00
11:55 AM,60.3,47.7,63,30.27,10.0,NNE,10.4,-,N/A,,Clear,20,2012-11-18 16:55:00
12:15 PM,61.3,48.2,62,30.26,10.0,North,6.9,-,N/A,,Clear,10,2012-11-18 17:15:00
12:35 PM,62.2,48.9,62,30.26,10.0,North,6.9,-,N/A,,Clear,10,2012-11-18 17:35:00
12:55 PM,63.0,49.3,61,30.25,10.0,NNE,9.2,-,N/A,,Clear,20,2012-11-18 17:55:00
1:15 PM,63.3,49.5,61,30.24,10.0,North,6.9,-,N/A,,Clear,360,2012-11-18 18:15:00
1:35 PM,64.0,50.0,60,30.23,10.0,NNE,6.9,-,N/A,,Clear,30,2012-11-18 18:35:00
1:55 PM,64.8,50.2,59,30.23,10.0,North,10.4,-,N/A,,Clear,360,2012-11-18 18:55:00
2:15 PM,65.1,50.9,60,30.22,10.0,North,6.9,-,N/A,,Clear,360,2012-11-18 19:15:00
2:35 PM,65.7,51.1,59,30.22,10.0,NNW,9.2,-,N/A,,Clear,340,2012-11-18 19:35:00
2:55 PM,65.5,50.5,58,30.22,10.0,North,11.5,16.1,N/A,,Clear,350,2012-11-18 19:55:00
3:15 PM,65.1,50.9,60,30.23,10.0,North,10.4,-,N/A,,Clear,360,2012-11-18 20:15:00
3:35 PM,64.9,51.1,61,30.22,10.0,NNE,10.4,-,N/A,,Clear,20,2012-11-18 20:35:00
3:55 PM,64.6,51.3,62,30.22,10.0,North,8.1,-,N/A,,Clear,10,2012-11-18 20:55:00
4:15 PM,63.9,51.6,64,30.22,10.0,North,10.4,-,N/A,,Clear,360,2012-11-18 21:15:00
4:35 PM,63.1,51.1,65,30.23,10.0,North,9.2,-,N/A,,Clear,350,2012-11-18 21:35:00
4:55 PM,62.1,50.9,67,30.23,10.0,North,6.9,-,N/A,,Clear,10,2012-11-18 21:55:00
5:15 PM,61.2,50.9,69,30.23,10.0,North,6.9,-,N/A,,Clear,10,2012-11-18 22:15:00
5:35 PM,59.9,50.9,72,30.24,10.0,North,8.1,-,N/A,,Scattered Clouds,10,2012-11-18 22:35:00
5:55 PM,59.4,50.9,74,30.25,10.0,North,4.6,-,N/A,,Mostly Cloudy,10,2012-11-18 22:55:00
6:15 PM,59.0,50.9,74,30.25,10.0,North,4.6,-,N/A,,Overcast,360,2012-11-18 23:15:00
6:35 PM,58.6,51.1,76,30.26,10.0,North,4.6,-,N/A,,Overcast,360,2012-11-18 23:35:00
6:55 PM,58.6,50.9,75,30.27,10.0,North,4.6,-,N/A,,Overcast,360,2012-11-18 23:55:00
7:15 PM,58.5,50.9,76,30.27,10.0,North,5.8,-,N/A,,Overcast,360,2012-11-19 00:15:00
7:35 PM,58.5,50.9,76,30.27,10.0,North,4.6,-,N/A,,Overcast,360,2012-11-19 00:35:00
7:55 PM,58.5,50.7,75,30.27,10.0,North,5.8,-,N/A,,Overcast,360,2012-11-19 00:55:00
8:15 PM,58.3,50.0,74,30.28,10.0,North,6.9,-,N/A,,Overcast,360,2012-11-19 01:15:00
8:35 PM,58.5,49.6,72,30.27,10.0,NNE,5.8,-,N/A,,Overcast,20,2012-11-19 01:35:00
9:15 PM,57.6,49.1,73,30.26,10.0,NNE,6.9,-,N/A,,Mostly Cloudy,30,2012-11-19 02:15:00
9:35 PM,56.8,49.1,75,30.26,10.0,North,5.8,-,N/A,,Mostly Cloudy,10,2012-11-19 02:35:00
9:55 PM,56.5,49.1,76,30.26,10.0,North,4.6,-,N/A,,Overcast,10,2012-11-19 02:55:00
10:15 PM,55.9,49.1,78,30.26,10.0,North,5.8,-,N/A,,Overcast,10,2012-11-19 03:15:00
10:35 PM,56.1,49.1,77,30.26,10.0,North,4.6,-,N/A,,Overcast,10,2012-11-19 03:35:00
10:55 PM,55.9,49.1,78,30.25,10.0,NNE,5.8,-,N/A,,Overcast,30,2012-11-19 03:55:00
11:35 PM,56.3,48.4,75,30.25,10.0,NNE,4.6,-,N/A,,Overcast,30,2012-11-19 04:35:00